Regional Weather Roundup
Issued by NWS

Home | Current Version | Previous Version | Graphics & Text | Print | Product List | Glossary On
Versions: 1 2 3 4 5 6 7 8 9 10 11 12 13 14 15 16 17 18 19 20 21 22 23 24 25 26 27 28 29 30 31 32 33 34 35 36 37 38 39 40 41 42 43 44 45 46 47 48 49 50
000
ASUS45 KPSR 010100
RWRAZ

ARIZONA HOURLY REGIONAL WEATHER ROUNDUP
NATIONAL WEATHER SERVICE PHOENIX AZ
600 PM MST FRI JUL 31 2015

NOTE: FAIR INDICATES FEW OR NO CLOUDS BELOW 12,000 FEET WITH NO
SIGNIFICANT WEATHER AND/OR OBSTRUCTIONS TO VISIBILITY.

AZZ001>003-036-010200-
NORTHWEST ARIZONA

CITY           SKY/WX    TMP DP  RH WIND       PRES   REMARKS
KINGMAN        PTSUNNY   95  45  17 SW9       30.04F
$$

AZZ004>008-015-016-018-010200-
NORTH CENTRAL ARIZONA

CITY           SKY/WX    TMP DP  RH WIND       PRES   REMARKS
GRAND CANYON   CLOUDY    69  50  50 W6        30.34F
WILLIAMS       CLOUDY    70  52  52 NW9       30.41S
PRESCOTT       CLOUDY    80  56  43 SW5       30.19F
FLAGSTAFF      NOT AVBL
PAYSON         CLOUDY    73  63  68 E3        30.23F
PAGE           PTSUNNY   91  48  22 N16G24    30.09R
$$

AZZ009>014-017-010200-
NORTHEAST ARIZONA

CITY           SKY/WX    TMP DP  RH WIND       PRES   REMARKS
WINSLOW        NOT AVBL
SAINT JOHNS    CLOUDY    73  52  47 S10       30.24F
SHOW LOW       CLOUDY    64  55  72 S12       30.32F
$$

AZZ023-010200-
GREATER PHOENIX AREA

CITY           SKY/WX    TMP DP  RH WIND       PRES   REMARKS
PHOENIX        TSTM      79  72  79 S14       29.97S
LUKE AFB       DRIZZLE   79  70  73 S12       29.94R
DEER VALLEY    CLOUDY    88  63  43 S18G25    29.96R
SCOTTSDALE     LGT RAIN  84  65  52 W12       29.99R
MESA-FALCON    CLOUDY    81  66  61 SW12G23   29.96R
MESA-GATEWAY   CLOUDY    81  70  69 W18G31    29.99R
CHANDLER       CLOUDY    81  68  65 W17G40    29.97R
$$

AZZ027-028-010200-
SOUTHWEST MARICOPA COUNTY AND PINAL COUNTY

CITY           SKY/WX    TMP DP  RH WIND       PRES   REMARKS
CASA GRANDE    CLOUDY    73  70  88 W16       30.00R THUNDER
$$

AZZ503-504-507>509-010200-
SOUTHEAST ARIZONA

CITY           SKY/WX    TMP DP  RH WIND       PRES   REMARKS
TUCSON         CLOUDY    84  63  49 NW9       30.04F
DAVIS-MONTHAN  CLOUDY    82  64  53 W10       30.02F
RYAN FIELD     SUNNY     84  66  54 NW9       30.03F
NOGALES        CLOUDY    74  66  76 NE6       30.13R
SIERRA VISTA   MOSUNNY   71  63  75 W15G25    30.18R THUNDER
SAFFORD        PTSUNNY   92  57  30 NE18G26   29.97F
$$

AZZ020-021-025-026-031-010200-
SOUTHWEST ARIZONA

CITY           SKY/WX    TMP DP  RH WIND       PRES   REMARKS
YUMA           CLOUDY   107  55  18 W7        29.78S HX 106
$$

CAZ031-033-041-043-047-048-061-010200-
SOUTHERN CALIFORNIA

CITY           SKY/WX    TMP DP  RH WIND       PRES   REMARKS
DOWNTOWN L.A.  SUNNY     77  65  66 VRB5      29.93F
L.A. AIRPORT   MOSUNNY   73  66  78 W15       29.95F
SAN DIEGO      PTSUNNY   74  64  71 W10       29.96F
BURBANK        SUNNY     89  61  38 S8        29.93F
ONTARIO        PTSUNNY   93  61  34 W15       29.92F
RIVERSIDE      PTSUNNY   91  61  36 W9        29.92F
PALM SPRINGS   PTSUNNY  105  54  18 NW17      29.81F HX 103
EL CENTRO NAS  PTSUNNY  110  30   6 SW12      29.77F HX 102
IMPERIAL       SUNNY    107  38   9 W9        29.75F HX 101
BLYTHE         CLOUDY   106  59  21 VRB3      29.78S HX 106
$$

NVZ020-UTZ003-010200-
SOUTHERN NEVADA-UTAH

CITY           SKY/WX    TMP DP  RH WIND       PRES   REMARKS
LAS VEGAS      NOT AVBL
SALT LAKE CITY MOSUNNY   92  22   8 N8        30.10F
$$

NMZ009-TXZ055-010200-
NEW MEXICO-WEST TEXAS

CITY           SKY/WX    TMP DP  RH WIND       PRES   REMARKS
ALBUQUERQUE    CLOUDY    76  57  51 N14G24    30.27R
EL PASO        MOSUNNY   92  51  24 SE7       30.06F
$$


........................KEY........................
SKY/WX - SKY CONDITION/WEATHER
TMP    - TEMPERATURE IN FAHRENHEIT
DP     - DEW POINT IN FAHRENHEIT
RH     - RELATIVE HUMIDITY IN PERCENT
WIND   - DIRECTION AND SPEED IN MILES PER HOUR (MPH)
VRB    - VARIABLE WIND DIRECTION
PRES   - MEAN SEA LEVEL PRESSURE IN INCHES OF MERCURY
         F - FALLING PRESSURE   R - RISING PRESSURE
         S - STEADY PRESSURE
VSB    - VISIBILITY IN MILES
HX     - HEAT INDEX IN FAHRENHEIT
WCI    - WIND CHILL INDEX IN FAHRENHEIT
TC     - TEMPERATURE IN CELSIUS WHICH IS ALSO KNOWN AS
         TEMPERATURE IN CENTIGRADE
AFB    - AIR FORCE BASE
         LUKE AFB IS LUKE AIR FORCE BASE
         DAVIS-MONTHAN IS DAVIS-MONTHAN AIR FORCE BASE
NAS    - NAVAL AIR STATION
         EL CENTRO NAS IS EL CENTRO NAVAL AIR STATION
N/A    - NOT AVAILABLE




USA.gov is the U.S. government's official web portal to all federal, state and local government web resources and services.